Погода в Артыке

Россия / Республика Саха (Якутия)     64°10′48″N   145°07′37″E
темп.,
°C
ветер,
м/с
пор.,
м/с
влажн.,
%
обл.,
%
осадки,
мм/ч
давл.,
гПа
погр.,
м
3 марта, ср
ср301:00−29зюз0099100 0.1 102019
04:00−29ююз11100100 0.3 101919
07:00−30ююв11100100 0.2 101819
10:00−27ю1197100 0.3 1016128
13:00−26ю2291100 0.1 1014306
16:00−26ююз1195100 0.1 101229
19:00−33всв1110087 0.0 101219
22:00−34ссв1110094 0.0 101219
4 марта, чт
чт401:00−35ссз1298100 0.0 101119
04:00−36ссз2295100 0.1 101019
07:00−39ссз239299 0.0 100918
10:00−35сз339099 0.0 1008173
13:00−33сз4588100 0.0 1007373
16:00−32сз4788100 0.0 1006526
19:00−35сз3493100 0.0 100769
22:00−36ссз3393100 0.0 100760
5 марта, пт
пт501:00−36ссз3394100 0.0 100755
04:00−35ссз3395100 0.0 100840
07:00−36сз2395100 0.0 100825
10:00−33зсз2393100 0.0 1008216
13:00−31зсз3590100 0.0 1007354
16:00−31зсз2593100 0.0 1007355
19:00−35сз22100100 0.1 100919
22:00−36сз22100100 0.1 101119
6 марта, сб
сб601:00−36сз2299100 0.0 101322
04:00−35сз2396100 0.1 101531
07:00−35сз2397100 0.1 101652
10:00−33сз3493100 0.1 1016246
13:00−30сз4689100 0.0 1014401
16:00−30сз4592100 0.0 1014285
19:00−32ссз3395100 0.0 101447
22:00−32ссз3394100 0.0 101540
7 марта, вс
вс701:00−32ссз3395100 0.0 101338
04:00−33сз3396100 0.0 101442
07:00−32сз3395100 0.0 101539
10:00−30сз349595 0.0 1014135
13:00−26сз48893 0.0 1013446
16:00−25сз4119216 0.0 1014665
19:00−30ссз339032 0.0 101719
22:00−33с239018 0.0 102019